Regional Weather Roundup
Issued by NWS

Home | Current Version | Previous Version | Graphics & Text | Print | Product List | Glossary On
Versions: 1 2 3 4 5 6 7 8 9 10 11 12 13 14 15 16 17 18 19 20 21 22 23 24 25 26 27 28 29 30 31 32 33 34 35 36 37 38 39 40 41 42 43 44 45 46 47 48 49 50
000
ASUS43 KLSX 281807
RWRMO

WEATHER SUMMARY FOR MISSOURI
NATIONAL WEATHER SERVICE SPRINGFIELD MO
100 PM CDT SUN AUG 28 2016

NOTE: "FAIR" INDICATES FEW OR NO CLOUDS BELOW 12,000 FEET WITH NO
       SIGNIFICANT WEATHER AND/OR OBSTRUCTIONS TO VISIBILITY.
       CURRENT SKY AND/OR WEATHER CONDITIONS ARE NOT AVAILABLE FOR
       CHILLICOTHE AND FARMINGTON.

MOZ001>031-035>038-043-044-053-054-281900-
...NORTHERN AND WESTERN MISSOURI...

CITY           SKY/WX    TMP DP  RH WIND       PRES   REMARKS
KANSAS CTY INT MOSUNNY   87  70  56 S5        30.13F HX  92
6HR MIN TEMP:  70; 6HR MAX TEMP:  87;

KANSAS C DTWN  MOSUNNY   88  70  55 SE8       30.11F HX  93
6HR MIN TEMP:  73; 6HR MAX TEMP:  89;

LEE`S SUMMIT   MOSUNNY   86  71  60 S8        30.14F HX  91
6HR MIN TEMP:  73; 6HR MAX TEMP:  87;

ST JOSEPH      SUNNY     88  71  57 SE8       30.11F HX  94
6HR MIN TEMP:  70; 6HR MAX TEMP:  89;

KIRKSVILLE     MOSUNNY   87  72  60 VRB5      30.16F HX  93
6HR MIN TEMP:  68; 6HR MAX TEMP:  88;


$$
MOZ066>068-077>081-088>096-101>105-281900-
...SOUTHWEST MISSOURI...

CITY           SKY/WX    TMP DP  RH WIND       PRES   REMARKS
SPRINGFIELD    PTSUNNY   89  66  46 SE6       30.15F HX  91
6HR MIN TEMP:  71; 6HR MAX TEMP:  89;

JOPLIN         SUNNY     88  69  53 VRB5      30.13F HX  92
6HR MIN TEMP:  72; 6HR MAX TEMP:  88; 6HR PCP: TRACE;

BRANSON        PTSUNNY   86  70  58 E8        30.18S HX  90

$$
MOZ032>034-039>042-045>050-055>058-069>072-281900-
...CENTRAL MISSOURI...

CITY           SKY/WX    TMP DP  RH WIND       PRES   REMARKS
COLUMBIA       MOSUNNY   88  72  58 VRB7      30.15F HX  94
6HR MIN TEMP:  71; 6HR MAX TEMP:  88;

JEFFERSON CITY MOSUNNY   88  73  61 SE7       30.14F HX  95
6HR MIN TEMP:  71; 6HR MAX TEMP:  88;

ROLLA          MOSUNNY   86  70  58 E3        30.17F HX  90
6HR MIN TEMP:  69; 6HR MAX TEMP:  87;

SEDALIA        MOSUNNY   88  73  61 E5        30.16F HX  95
6HR MIN TEMP:  71; 6HR MAX TEMP:  90;

WHITEMAN AFB   PTSUNNY   86  75  71 VRB5      30.13F HX  95
OSAGE BEACH    SUNNY     87  73  62 SW3       30.16F HX  94

$$
MOZ051-052-059>065-281900-
...EAST CENTRAL MISSOURI...

CITY           SKY/WX    TMP DP  RH WIND       PRES   REMARKS
ST LOUIS INTL  PTSUNNY   91  66  43 CALM      30.16F HX  93
6HR MIN TEMP:  76; 6HR MAX TEMP:  93;

SPIRIT OF STL  MOSUNNY   90  69  50 SW5       30.14F HX  94
6HR MIN TEMP:  70; 6HR MAX TEMP:  90;

ST CHARLES     SUNNY     89  70  53 CALM      30.14F HX  94
6HR MIN TEMP:  71; 6HR MAX TEMP:  90;


$$
MOZ072>076-082>087-097>100-106>115-281900-
...SOUTH CENTRAL AND SOUTHEAST MISSOURI...

CITY           SKY/WX    TMP DP  RH WIND       PRES   REMARKS
CAPE GIRARDEAU SUNNY     91  73  55 VRB6      30.14F HX  99
6HR MIN TEMP:  72; 6HR MAX TEMP:  91;

FARMINGTON     MOSUNNY   89  72  56 E8        30.18F HX  96
6HR MIN TEMP:  67; 6HR MAX TEMP:  89;

POPLAR BLUFF   MOSUNNY   90  75  61 NE8       30.13F HX 100
6HR MIN TEMP:  71; 6HR MAX TEMP:  90;

WEST PLAINS    MOSUNNY   87  69  54 E7        30.19F HX  91
6HR MIN TEMP:  68; 6HR MAX TEMP:  88;


$$



USA.gov is the U.S. government's official web portal to all federal, state and local government web resources and services.